Showing default

STELLA, 22824

Orbit data source: Space-Track

STELLA, 22824 is a payload satellite owned by CNES (FR) in SSO that was launched on Sun, 26 Sep 1993 UTC via an ARIANE 40 launch vehicle from the French Guiana (FRGUI). Payload-class satellites include a variety of spacecraft equipped with specific instruments for various scientific and technological missions. These include communications satellites like Starlink; space stations such as the ISS; scientific satellites like the Hubble; Earth observation satellites from companies like Planet Labs, Umbra, and HawkEye 360; GPS; miniature CubeSats for education and research; and military/defense satellites.

Loading next visibility...
Identifier
22824, 1993-061B
Orbit
SSO
Country
Flag of FRFR
Related business
Manufacturer
CNES
Mission
Operational Civil Geodetic
Bus & Motor
STARLETTE, Unknown motor
Mass
48 kg wet, 48 kg dry
Launch date (UTC)
1993-09-26 (32 years ago)
Launch vehicle
ARIANE 40
Launch site
French Guiana (FRGUI)
Object type
Payload
Rocket body
Debris
Shape & HBR
Sphere, 0.1 m
Radar Cross Section
0.045 m², Medium (>0.1 m² and < 1m²)

Expand to show TLE details & history
Last TLE update: 9 hours ago

TLE from 9 hours ago
0 STELLA
1 22824U 93061B   25340.94705610 -.00000011  00000-0  13949-4 0  9996
2 22824  98.8018  39.2476 0007449  78.5354  98.0673 14.27463663677343
Epoch: 2025-12-06T22:43Z
TLE epoch observation values (Epoch: 2025-12-06T22:43:45.647Z)
Latitude
3.17677°
Longitude
162.8297°
Altitude
803.541 km
Speed
7.452 km/s
True Right ascension
14h 38m 56s
True Declination
3° 09' 29"
Sunlit
Object was in daylight at epoch
Visualization orbit readout
Latitude
Unknown
Longitude
Unknown
Altitude
Unknown
Speed
Unknown
Apparent Right ascension
Unknown
Apparent Declination
Unknown
Sunlit
N/A
Visualization observer readout
Local Sidereal Time
05:22:40
Azimuth
Unknown
Elevation
Unknown
Doppler factor
Unknown
Orbital elements
Apogee altitude
802.719 km
Perigee altitude
792.029 km
Semi-major axis
7,175.511 km
Eccentricity
0.00074
Inclination
98.8018°
RAAN
39.2476°
Arg. of periapsis
78.5354°
True anomaly
98.1518°
Mean anomaly
98.0673°
Eccentric anomaly
98.10955°
Mean motion
3.57079 °/min
Orbital period
100.82 mins
BSTAR
0.000013949
Loading maneuver chart data...
Computing Atmospheric mass density...
Loading historical data...
Loading historical data...
Loading historical data...
Loading historical data...
Loading historical data...
Loading historical data...
Loading historical data...

Documentation

Showing up to 5 results
|